Overview Statistics Trail Chart Weather Telemetry Raw packets
 

This is the latest recevied weather packets stored in our database for station/object IU5JAE-13. If no packets are shown the sender has not sent any weather packets the latest 10 day(s).

<< 18 19 20 21 22 23 24 >>
Time Temp. Humidity Pressure Rain* Wind** Luminosity Snow
1788428131 27.22° C 64% 1021.4 hPa 0 mm - 535 W/m² -
1788427529 27.22° C 64% 1021.4 hPa 0 mm - 524 W/m² -
1788426926 27.22° C 64% 1021.4 hPa 0 mm - 507 W/m² -
1788426324 27.78° C 64% 1021.3 hPa 0 mm - 487 W/m² -
1788425721 27.22° C 65% 1021.3 hPa 0 mm - 469 W/m² -
1788425119 26.67° C 65% 1021.1 hPa 0 mm - 451 W/m² -
1788424517 26.11° C 66% 1021.1 hPa 0 mm - 434 W/m² -
1788423935 26.11° C 67% 1021 hPa 0 mm - 414 W/m² -
1788423332 25.56° C 68% 1020.8 hPa 0 mm - 391 W/m² -
1788422730 25.56° C 67% 1020.8 hPa 0 mm - 368 W/m² -
1788422127 25.56° C 68% 1020.8 hPa 0 mm - 341 W/m² -
1788421525 25° C 68% 1020.7 hPa 0 mm - 317 W/m² -
1788420922 25° C 70% 1020.7 hPa 0 mm - 290 W/m² -
1788420320 24.44° C 71% 1020.7 hPa 0 mm - 261 W/m² -
1788419717 23.89° C 73% 1020.6 hPa 0 mm - 232 W/m² -
1788419135 24.44° C 72% 1020.6 hPa 0 mm - 208 W/m² -
1788418533 23.33° C 74% 1020.6 hPa 0 mm - 186 W/m² -
1788417930 23.33° C 74% 1020.6 hPa 0 mm - 159 W/m² -
1788417328 23.33° C 74% 1020.7 hPa 0 mm - 103 W/m² -
1788416725 23.33° C 76% 1020.5 hPa 0 mm - 79 W/m² -
1788416123 23.89° C 71% 1020.4 hPa 0 mm - 66 W/m² -
1788415521 22.22° C 76% 1020.4 hPa 0 mm - 57 W/m² -
1788414918 22.22° C 77% 1020.4 hPa 0 mm - 48 W/m² -
1788414316 21.11° C 79% 1020.4 hPa 0 mm - 40 W/m² -
1788413733 20.56° C 82% 1020.3 hPa 0 mm - 32 W/m² -

* Rain latest hour (hover to see other rain measurements)
** Current wind speed in m/s (hover to see current wind gust speed)